Location: Maccacari
(45.1333°N, 11.1333°E)
Time: 03:34:35
(UTC+00:00)

Altair - Pass Details

Date: 30 January 2021
Orbit: 1501 x 1682 km, 47.2° (Epoch: 01 March)

Event Time Altitude Azimuth Distance (km) Brightness Sun altitude
Rises 02:29:15 0° 224° (SW) 4,800 - -43.5°
Reaches altitude 10° 02:32:22 10° 221° (SW) 3,840 - -43.0°
Maximum altitude 02:41:56 58° 145° (SE) 1,884 - -41.4°
Exits shadow 02:42:32 57° 132° (SE) 1,898 7.9 -41.3°
Drops below altitude 10° 02:51:46 10° 70° (ENE) 3,946 10.3 -39.8°
Sets 02:55:01 0° 67° (ENE) 4,940 11.1 -39.2°
